TimeEET,TemperatureF,Dew PointF,Humidity,Sea Level PressureIn,VisibilityMPH,Wind Direction,Wind SpeedMPH,Gust SpeedMPH,PrecipitationIn,Events,Conditions,WindDirDegrees,DateUTC
12:20 AM,48.2,35.6,62,29.53,6.2,WSW,5.8,-,N/A,,Partly Cloudy,250,2013-01-18 22:20:00
12:50 AM,48.2,33.8,58,29.53,6.2,Variable,3.5,-,N/A,,Scattered Clouds,0,2013-01-18 22:50:00
1:20 AM,48.2,35.6,62,29.56,6.2,Variable,1.2,-,N/A,,Scattered Clouds,0,2013-01-18 23:20:00
1:50 AM,48.2,35.6,62,29.56,6.2,Variable,3.5,-,N/A,,Mostly Cloudy,0,2013-01-18 23:50:00
2:20 AM,48.2,35.6,62,29.56,6.2,Variable,3.5,-,N/A,,Mostly Cloudy,0,2013-01-19 00:20:00
2:50 AM,46.4,35.6,66,29.59,6.2,WSW,4.6,-,N/A,,Mostly Cloudy,240,2013-01-19 00:50:00
3:20 AM,46.4,35.6,66,29.59,6.2,Variable,3.5,-,N/A,,Scattered Clouds,0,2013-01-19 01:20:00
3:50 AM,46.4,35.6,66,29.59,6.2,Variable,1.2,-,N/A,,Mostly Cloudy,0,2013-01-19 01:50:00
4:20 AM,48.2,35.6,62,29.59,6.2,SW,6.9,-,N/A,,Scattered Clouds,220,2013-01-19 02:20:00
4:50 AM,46.4,35.6,66,29.59,6.2,SSW,10.4,-,N/A,,Scattered Clouds,210,2013-01-19 02:50:00
5:20 AM,46.4,35.6,66,29.59,6.2,SW,9.2,-,N/A,,Scattered Clouds,230,2013-01-19 03:20:00
5:50 AM,46.4,35.6,66,29.59,6.2,SW,9.2,-,N/A,,Partly Cloudy,220,2013-01-19 03:50:00
6:20 AM,48.2,35.6,62,29.59,6.2,SW,6.9,-,N/A,,Mostly Cloudy,230,2013-01-19 04:20:00
6:50 AM,48.2,37.4,66,29.62,6.2,SW,6.9,-,N/A,,Mostly Cloudy,220,2013-01-19 04:50:00
7:20 AM,48.2,35.6,62,29.62,6.2,SSW,8.1,-,N/A,,Scattered Clouds,200,2013-01-19 05:20:00
7:50 AM,48.2,35.6,62,29.65,6.2,Variable,2.3,-,N/A,,Scattered Clouds,0,2013-01-19 05:50:00
8:20 AM,48.2,37.4,66,29.65,6.2,Calm,Calm,-,N/A,,Scattered Clouds,0,2013-01-19 06:20:00
8:50 AM,48.2,37.4,66,29.68,6.2,Variable,3.5,-,N/A,,Scattered Clouds,0,2013-01-19 06:50:00
9:20 AM,48.2,37.4,66,29.68,6.2,South,6.9,-,N/A,,Scattered Clouds,180,2013-01-19 07:20:00
9:50 AM,50.0,37.4,62,29.68,6.2,Variable,3.5,-,N/A,,Scattered Clouds,0,2013-01-19 07:50:00
10:20 AM,51.8,37.4,58,29.71,6.2,WSW,13.8,-,N/A,,Scattered Clouds,240,2013-01-19 08:20:00
10:50 AM,50.0,35.6,58,29.71,6.2,WSW,17.3,36.8,N/A,,Scattered Clouds,240,2013-01-19 08:50:00
11:20 AM,51.8,37.4,58,29.71,6.2,WSW,20.7,-,N/A,,Scattered Clouds,250,2013-01-19 09:20:00
11:50 AM,53.6,37.4,54,29.68,6.2,WSW,19.6,31.1,N/A,,Scattered Clouds,240,2013-01-19 09:50:00
12:20 PM,53.6,39.2,58,29.68,6.2,SW,18.4,-,N/A,,Scattered Clouds,230,2013-01-19 10:20:00
12:50 PM,55.4,37.4,51,29.71,6.2,SW,11.5,-,N/A,,Scattered Clouds,220,2013-01-19 10:50:00
1:20 PM,55.4,37.4,51,29.68,6.2,SW,12.7,-,N/A,,Scattered Clouds,220,2013-01-19 11:20:00
1:50 PM,55.4,37.4,51,29.71,6.2,SSW,19.6,-,N/A,,Scattered Clouds,200,2013-01-19 11:50:00
2:20 PM,55.4,37.4,51,29.71,6.2,SW,16.1,-,N/A,,Scattered Clouds,230,2013-01-19 12:20:00
2:50 PM,57.2,37.4,48,29.71,6.2,WSW,13.8,-,N/A,,Scattered Clouds,240,2013-01-19 12:50:00
3:20 PM,57.2,37.4,48,29.74,6.2,WSW,12.7,-,N/A,,Scattered Clouds,250,2013-01-19 13:20:00
3:50 PM,55.4,35.6,47,29.74,6.2,WSW,12.7,-,N/A,,Scattered Clouds,250,2013-01-19 13:50:00
4:20 PM,55.4,37.4,51,29.74,6.2,WSW,9.2,-,N/A,,Scattered Clouds,240,2013-01-19 14:20:00
4:50 PM,53.6,35.6,51,29.77,6.2,SW,8.1,-,N/A,,Scattered Clouds,230,2013-01-19 14:50:00
5:20 PM,53.6,35.6,51,29.77,6.2,West,10.4,-,N/A,,Scattered Clouds,260,2013-01-19 15:20:00
5:50 PM,51.8,35.6,54,29.80,6.2,West,4.6,-,N/A,,Scattered Clouds,260,2013-01-19 15:50:00
6:20 PM,51.8,35.6,54,29.80,6.2,West,10.4,-,N/A,,Scattered Clouds,260,2013-01-19 16:20:00
6:50 PM,51.8,35.6,54,29.80,6.2,WSW,8.1,-,N/A,,Mostly Cloudy,240,2013-01-19 16:50:00
7:20 PM,51.8,35.6,54,29.80,6.2,SW,10.4,-,N/A,,Mostly Cloudy,230,2013-01-19 17:20:00
7:50 PM,51.8,35.6,54,29.83,6.2,SE,5.8,-,N/A,,Mostly Cloudy,130,2013-01-19 17:50:00
8:20 PM,51.8,35.6,54,29.83,6.2,Variable,3.5,-,N/A,,Mostly Cloudy,0,2013-01-19 18:20:00
8:50 PM,51.8,35.6,54,29.83,6.2,Variable,3.5,-,N/A,,Mostly Cloudy,0,2013-01-19 18:50:00
9:20 PM,51.8,35.6,54,29.83,6.2,SSE,8.1,-,N/A,,Scattered Clouds,150,2013-01-19 19:20:00
9:50 PM,51.8,35.6,54,29.86,6.2,SW,4.6,-,N/A,,Scattered Clouds,220,2013-01-19 19:50:00
10:20 PM,51.8,37.4,58,29.86,6.2,WSW,4.6,-,N/A,,Partly Cloudy,240,2013-01-19 20:20:00
10:50 PM,50.0,37.4,62,29.86,6.2,SW,5.8,-,N/A,,Partly Cloudy,220,2013-01-19 20:50:00
11:20 PM,50.0,37.4,62,29.89,6.2,Variable,1.2,-,N/A,,Partly Cloudy,0,2013-01-19 21:20:00
11:50 PM,50.0,39.2,66,29.89,6.2,South,4.6,-,N/A,,Partly Cloudy,180,2013-01-19 21:50:00